Regional Weather Roundup
Issued by NWS Green Bay, WI

Home | Current Version | Previous Version | Text Only | Print | Product List | Glossary On
Versions: 1 2 3 4 5 6 7 8 9 10 11 12 13 14 15 16 17 18 19 20 21 22 23 24 25 26 27 28 29 30 31 32 33 34 35 36 37 38 39 40 41 42 43 44 45 46 47 48 49 50
894
ASUS43 KGRB 251600
RWRGRB

NORTH-CENTRAL AND NORTHEAST WISCONSIN REGIONAL WEATHER ROUNDUP
NATIONAL WEATHER SERVICE GREEN BAY WI
1100 AM CDT WED MAY 25 2016

WIZ005-009-010>012-018-019-251700-
NORTH CENTRAL WISCONSIN

CITY           SKY/WX    TMP DP  RH WIND       PRES   REMARKS
IRONWOOD       PTSUNNY   64  59  82 SE8       30.00S
MANITOWISH WTR NOT AVBL
ARBOR VITAE    NOT AVBL
EAGLE RIVER    NOT AVBL
LAND O LAKES   NOT AVBL
RHINELANDER    CLOUDY    62  57  83 E10       30.06S
PHILLIPS       PTSUNNY   67  59  76 E10       30.01S
ANTIGO         NOT AVBL
TOMAHAWK       NOT AVBL
MERRILL        CLOUDY    64  61  88 E10       30.04S
$$

WIZ013-073-251700-
NORTHEAST WISCONSIN

CITY           SKY/WX    TMP DP  RH WIND       PRES   REMARKS
IRON MOUNTAIN  CLOUDY    59  53  80 E5        30.06S
MARINETTE      CLOUDY    60  54  80 E12       30.06S
$$

WIZ017-030-035>037-045-251700-
CENTRAL WISCONSIN

CITY           SKY/WX    TMP DP  RH WIND       PRES   REMARKS
MEDFORD        NOT AVBL
WAUSAU         CLOUDY    65  58  78 E14       30.01S
MOSINEE        CLOUDY    64  61  88 E10G17    30.03S
MARSHFIELD     CLOUDY    71  60  68 E15       29.98S
WISC RAPIDS    PTSUNNY   70  57  63 E9        30.01R
STEVENS POINT  NOT AVBL
WAUPACA        CLOUDY    67  58  72 NE8       30.03S
SHAWANO        CLOUDY    65  59  82 E7        30.05S
CLINTONVILLE   NOT AVBL
WAUTOMA        CLOUDY    69  59  70 NE13      30.00S
$$

WIZ038-039-048-051-251700-
FOX VALLEY

CITY           SKY/WX    TMP DP  RH WIND       PRES   REMARKS
NWS GREEN BAY  CLOUDY    62  57  83 NE10      30.04S
APPLETON       PTSUNNY   63  55  77 E10       30.01F
OSHKOSH        CLOUDY    64  57  78 E10       30.01F
FOND DU LAC    PTSUNNY   69  60  73 NE13      30.00F
$$

WIZ022-050-052-251700-
EAST CENTRAL WISCONSIN

CITY           SKY/WX    TMP DP  RH WIND       PRES   REMARKS
EPHRAIM        CLOUDY    54  54  99 N6        30.06S
STURGEON BAY   NOT AVBL
MANITOWOC      NOT AVBL
SHEBOYGAN      SUNNY     60  54  80 NE16      30.03F
$$

LMZ563-521-522-541>543-251700-
LAKESHORE

STATION/POSITION TIME  TEMP    WIND        PRES    VSBY  WAVE
                       AIR SEA DIR/SP/G                  HT/PER
                 (UTC) (F)     (DEG/KT/KT) (MB)    (MI)  (FT/S)
SHEBOYGAN LKSHOR 1500   49     360/  9/  9 1018.0R
KEWAUNEE LKSHORE 1500   53      30/  6/ 10 1016.9F
ALGOMA MARINA    1547           60/ 12/ 15   N/A
NORTHPORT PIER   1500   52     340/  8/ 10 1018.3S
N MID LAKE BUOY  1450   48 45  340/  6/  8 1018.5R         1
SISTER BAY LKSHO 1504   56      10/ 13/ 15   N/A
CHAMBERS ISLAND  1500   53      20/  8/  9 1018.3
MENOMINEE LKSHOR 1506   55      50/ 10/ 12 1017.0F
$$




USA.gov is the U.S. government's official web portal to all federal, state and local government web resources and services.